DL1NER Weather Reports


Display with metric or nautical units.
time (UTC)temp
F
wind
direction
speed
MPH
gust
MPH
rain 1hr
in
rain 24hr
in
rain mn
in
humidity
%
barometer
mb
20260903222009 65 257 3.0 6.0 0.00 0.00 0.00 62 1020.0
20260903221056 65 259 3.0 6.0 0.00 0.00 0.00 61 1020.1
20260903220009 66 241 2.0 4.0 0.00 0.00 0.00 61 1019.9
20260903215010 66 254 1.0 3.0 0.00 0.00 0.00 59 1019.8
20260903214009 66 254 2.0 4.0 0.00 0.00 0.00 59 1019.9
20260903213009 67 230 1.0 4.0 0.00 0.00 0.00 58 1019.9
20260903212009 67 230 1.0 4.0 0.00 0.00 0.00 58 1019.9
20260903211008 67 266 1.0 3.0 0.00 0.00 0.00 57 1019.9
20260903210018 67 276 2.0 3.0 0.00 0.00 0.00 56 1020.0
20260903205008 68 277 2.0 4.0 0.00 0.00 0.00 56 1020.0
20260903204009 68 277 2.0 9.0 0.00 0.00 0.00 56 1019.9
20260903203008 68 277 2.0 9.0 0.00 0.00 0.00 56 1019.9
20260903202013 68 236 1.0 4.0 0.00 0.00 0.00 56 1019.9
20260903201013 68 236 2.0 6.0 0.00 0.00 0.00 56 1019.9
20260903200013 68 228 2.0 6.0 0.00 0.00 0.00 57 1019.7
20260903195013 68 231 2.0 6.0 0.00 0.00 0.00 57 1019.5
20260903194013 68 225 2.0 4.0 0.00 0.00 0.00 57 1019.7
20260903193013 68 228 0.0 3.0 0.00 0.00 0.00 58 1019.9
20260903192013 69 220 0.0 0.0 0.00 0.00 0.00 56 1019.8
20260903191013 69 220 0.0 0.0 0.00 0.00 0.00 56 1019.8
20260903190013 69 220 0.0 2.0 0.00 0.00 0.00 56 1019.7
20260903185013 69 220 1.0 3.0 0.00 0.00 0.00 56 1019.7
20260903184013 69 219 0.0 3.0 0.00 0.00 0.00 56 1019.5
20260903183013 70 219 1.0 3.0 0.00 0.00 0.00 55 1019.5
20260903182012 70 252 0.0 3.0 0.00 0.00 0.00 55 1019.5
20260903181012 70 261 1.0 3.0 0.00 0.00 0.00 55 1019.4